When you browse on this site, cookies collect data to enhance your experience and personalize the content and advertising you see.
Visit our Privacy Policy to learn more. By continuing to use the site, you agree to this use of cookies and data.
  • Em Portugal
  • Lista de países
  • Para 7 dias
  • Temperatura da água
  • Mapas de satélite
  • Mapa do tempo
  • Widgets de tempo
  • user-avatar
    Iniciar Sessão

    Previsão horária em Retowo

    Hoje, 24 Maio, Sexta-feira

    Tempo Temperatura Precipitação Vento Pressão Humidade
    00:00 +8°C° 0 mm 2 m/s 756 mmHg 89%
    01:00 +9°C° 0 mm 1 m/s 756 mmHg 88%
    02:00 +8°C° 0 mm 2 m/s 756 mmHg 87%
    03:00 +8°C° 0 mm 2 m/s 756 mmHg 87%
    04:00 +8°C° 0 mm 2 m/s 756 mmHg 86%
    05:00 +10°C° 0 mm 2 m/s 756 mmHg 81%
    06:00 +13°C° 0 mm 2 m/s 756 mmHg 76%
    07:00 +14°C° 0 mm 2 m/s 756 mmHg 71%
    08:00 +16°C° 0 mm 2 m/s 755 mmHg 66%
    09:00 +18°C° 0 mm 3 m/s 755 mmHg 61%
    10:00 +19°C° 0 mm 3 m/s 755 mmHg 55%
    11:00 +20°C° 0 mm 3 m/s 755 mmHg 54%
    12:00 +20°C° 0 mm 3 m/s 755 mmHg 53%
    13:00 +21°C° 0 mm 4 m/s 754 mmHg 51%
    14:00 +21°C° 0 mm 4 m/s 754 mmHg 52%
    15:00 +21°C° 0 mm 4 m/s 753 mmHg 53%
    16:00 +21°C° 0 mm 4 m/s 753 mmHg 54%
    17:00 +20°C° 0.1 mm 3 m/s 753 mmHg 61%
    18:00 +19°C° 0.1 mm 3 m/s 752 mmHg 69%
    19:00 +18°C° 0.1 mm 2 m/s 752 mmHg 77%
    20:00 +17°C° 0.1 mm 2 m/s 752 mmHg 79%
    21:00 +16°C° 0.1 mm 2 m/s 752 mmHg 82%
    22:00 +15°C° 0.1 mm 2 m/s 752 mmHg 84%
    23:00 +14°C° 0 mm 2 m/s 752 mmHg 88%

    Amanhã, 25 Maio, Sábado

    Tempo Temperatura Precipitação Vento Pressão Humidade
    00:00 +12°C° 0 mm 2 m/s 752 mmHg 91%
    01:00 +10°C° 0 mm 2 m/s 752 mmHg 94%
    02:00 +10°C° 0 mm 2 m/s 752 mmHg 95%
    03:00 +9°C° 0 mm 3 m/s 752 mmHg 96%
    04:00 +8°C° 0 mm 3 m/s 752 mmHg 97%
    05:00 +9°C° 0 mm 3 m/s 752 mmHg 93%
    06:00 +10°C° 0 mm 4 m/s 752 mmHg 88%
    07:00 +10°C° 0 mm 5 m/s 752 mmHg 84%
    08:00 +10°C° 0 mm 5 m/s 752 mmHg 83%
    09:00 +10°C° 0 mm 5 m/s 753 mmHg 82%
    10:00 +10°C° 0 mm 5 m/s 753 mmHg 81%
    11:00 +12°C° 0 mm 5 m/s 753 mmHg 79%
    12:00 +12°C° 0 mm 5 m/s 753 mmHg 78%
    13:00 +12°C° 0 mm 5 m/s 753 mmHg 76%
    14:00 +13°C° 0 mm 5 m/s 753 mmHg 75%
    15:00 +14°C° 0 mm 5 m/s 752 mmHg 73%
    16:00 +14°C° 0 mm 4 m/s 752 mmHg 71%
    17:00 +14°C° 0 mm 4 m/s 752 mmHg 73%
    18:00 +13°C° 0 mm 3 m/s 752 mmHg 76%
    19:00 +13°C° 0 mm 3 m/s 752 mmHg 78%
    20:00 +11°C° 0 mm 3 m/s 752 mmHg 82%
    21:00 +10°C° 0 mm 2 m/s 752 mmHg 86%
    22:00 +9°C° 0 mm 2 m/s 752 mmHg 90%
    23:00 +9°C° 0 mm 2 m/s 752 mmHg 88%

    Depois de amanhã, 26 Maio, Domingo

    Tempo Temperatura Precipitação Vento Pressão Humidade
    00:00 +9°C° 0 mm 2 m/s 752 mmHg 86%
    01:00 +9°C° 0 mm 3 m/s 752 mmHg 84%
    02:00 +10°C° 0 mm 3 m/s 752 mmHg 85%
    03:00 +10°C° 0 mm 2 m/s 752 mmHg 87%
    04:00 +10°C° 0 mm 2 m/s 751 mmHg 88%
    05:00 +11°C° 0 mm 3 m/s 751 mmHg 85%
    06:00 +11°C° 0 mm 4 m/s 751 mmHg 82%
    07:00 +12°C° 0 mm 5 m/s 751 mmHg 79%
    08:00 +12°C° 0 mm 5 m/s 751 mmHg 76%
    09:00 +11°C° 0 mm 6 m/s 751 mmHg 73%
    10:00 +13°C° 0 mm 6 m/s 750 mmHg 70%
    11:00 +13°C° 0.1 mm 6 m/s 750 mmHg 70%
    12:00 +14°C° 0.1 mm 6 m/s 750 mmHg 70%
    13:00 +14°C° 0.1 mm 6 m/s 750 mmHg 69%
    14:00 +14°C° 0.1 mm 5 m/s 750 mmHg 72%
    15:00 +14°C° 0.1 mm 5 m/s 750 mmHg 74%
    16:00 +13°C° 0.1 mm 4 m/s 749 mmHg 77%
    17:00 +13°C° 0.1 mm 4 m/s 749 mmHg 82%
    18:00 +12°C° 0.1 mm 3 m/s 749 mmHg 87%
    19:00 +11°C° 0.1 mm 3 m/s 749 mmHg 91%
    20:00 +12°C° 0.1 mm 3 m/s 749 mmHg 93%
    21:00 +12°C° 0.1 mm 4 m/s 749 mmHg 94%
    22:00 +12°C° 0.1 mm 4 m/s 749 mmHg 95%
    23:00 +12°C° 0.1 mm 4 m/s 749 mmHg 95%

    27 Maio, Segunda-feira

    Tempo Temperatura Precipitação Vento Pressão Humidade
    00:00 +12°C° 0.1 mm 3 m/s 748 mmHg 96%
    01:00 +12°C° 0.1 mm 3 m/s 748 mmHg 97%
    02:00 +13°C° 0.5 mm 4 m/s 747 mmHg 96%
    03:00 +13°C° 0.5 mm 5 m/s 747 mmHg 95%
    04:00 +13°C° 0.5 mm 6 m/s 746 mmHg 94%
    05:00 +13°C° 0.8 mm 6 m/s 746 mmHg 94%
    06:00 +12°C° 0.8 mm 7 m/s 746 mmHg 94%
    07:00 +12°C° 0.8 mm 7 m/s 745 mmHg 93%
    08:00 +14°C° 0.1 mm 7 m/s 746 mmHg 90%
    09:00 +15°C° 0.1 mm 7 m/s 746 mmHg 86%
    10:00 +16°C° 0.1 mm 7 m/s 746 mmHg 83%
    11:00 +16°C° 0.9 mm 7 m/s 746 mmHg 85%
    12:00 +15°C° 0.9 mm 7 m/s 746 mmHg 86%
    13:00 +15°C° 0.9 mm 7 m/s 746 mmHg 88%
    14:00 +15°C° 0.7 mm 7 m/s 747 mmHg 86%
    15:00 +15°C° 0.7 mm 7 m/s 747 mmHg 84%
    16:00 +15°C° 0.7 mm 7 m/s 747 mmHg 81%
    17:00 +14°C° 0.1 mm 6 m/s 748 mmHg 83%
    18:00 +13°C° 0.1 mm 5 m/s 748 mmHg 84%
    19:00 +11°C° 0.1 mm 4 m/s 748 mmHg 86%
    20:00 +10°C° 0 mm 3 m/s 749 mmHg 88%
    21:00 +9°C° 0 mm 2 m/s 749 mmHg 90%
    22:00 +9°C° 0 mm 1 m/s 750 mmHg 93%
    23:00 +9°C° 0 mm 1 m/s 750 mmHg 93%

    28 Maio, Terça-feira

    Tempo Temperatura Precipitação Vento Pressão Humidade
    00:00 +9°C° 0 mm 1 m/s 750 mmHg 93%
    01:00 +8°C° 0 mm 2 m/s 750 mmHg 93%
    02:00 +8°C° 0 mm 2 m/s 750 mmHg 94%
    03:00 +8°C° 0 mm 2 m/s 750 mmHg 95%
    04:00 +8°C° 0 mm 2 m/s 750 mmHg 96%
    05:00 +9°C° 0 mm 2 m/s 750 mmHg 91%
    06:00 +12°C° 0 mm 2 m/s 750 mmHg 87%
    07:00 +14°C° 0 mm 2 m/s 750 mmHg 82%
    08:00 +15°C° 0.1 mm 2 m/s 751 mmHg 77%
    09:00 +16°C° 0.1 mm 2 m/s 751 mmHg 72%
    10:00 +17°C° 0.1 mm 2 m/s 751 mmHg 67%
    11:00 +18°C° 0.3 mm 1 m/s 751 mmHg 70%
    12:00 +18°C° 0.3 mm 1 m/s 750 mmHg 72%
    13:00 +18°C° 0.3 mm 1 m/s 750 mmHg 74%
    14:00 +16°C° 0 mm 2 m/s 750 mmHg 76%
    15:00 +16°C° 0 mm 2 m/s 750 mmHg 77%
    16:00 +16°C° 0 mm 3 m/s 750 mmHg 79%
    17:00 +14°C° 0 mm 3 m/s 750 mmHg 79%
    18:00 +13°C° 0 mm 3 m/s 750 mmHg 79%
    19:00 +13°C° 0 mm 3 m/s 750 mmHg 79%
    20:00 +12°C° 0.1 mm 3 m/s 751 mmHg 83%
    21:00 +11°C° 0.1 mm 3 m/s 751 mmHg 87%
    22:00 +9°C° 0.1 mm 3 m/s 751 mmHg 91%
    23:00 +9°C° 0.2 mm 3 m/s 751 mmHg 91%

    29 Maio, Quarta-feira

    Tempo Temperatura Precipitação Vento Pressão Humidade
    00:00 +9°C° 0.2 mm 3 m/s 752 mmHg 91%
    01:00 +9°C° 0.2 mm 3 m/s 752 mmHg 92%
    02:00 +8°C° 0.1 mm 3 m/s 752 mmHg 91%
    03:00 +8°C° 0.1 mm 3 m/s 752 mmHg 90%
    04:00 +8°C° 0.1 mm 3 m/s 753 mmHg 89%
    05:00 +8°C° 0 mm 3 m/s 753 mmHg 84%
    06:00 +8°C° 0 mm 4 m/s 753 mmHg 79%
    07:00 +8°C° 0 mm 4 m/s 753 mmHg 74%
    08:00 +10°C° 0 mm 4 m/s 754 mmHg 68%
    09:00 +11°C° 0 mm 4 m/s 754 mmHg 62%
    10:00 +12°C° 0 mm 4 m/s 754 mmHg 56%
    11:00 +13°C° 0 mm 4 m/s 754 mmHg 54%
    12:00 +13°C° 0 mm 4 m/s 754 mmHg 53%
    13:00 +14°C° 0 mm 4 m/s 754 mmHg 52%
    14:00 +13°C° 0 mm 4 m/s 754 mmHg 53%
    15:00 +13°C° 0 mm 3 m/s 754 mmHg 54%
    16:00 +13°C° 0 mm 3 m/s 754 mmHg 56%
    17:00 +12°C° 0 mm 3 m/s 754 mmHg 60%
    18:00 +12°C° 0 mm 2 m/s 754 mmHg 64%
    19:00 +11°C° 0 mm 1 m/s 754 mmHg 69%
    20:00 +10°C° 0 mm 1 m/s 755 mmHg 69%
    21:00 +9°C° 0 mm 1 m/s 755 mmHg 69%
    22:00 +9°C° 0 mm 1 m/s 755 mmHg 69%
    23:00 +9°C° 0 mm 1 m/s 755 mmHg 69%
    Mostrar mais